Location: La Vergne
(36.0160°N, 86.5820°W)
Time: 03:13:27
(UTC-05:00)

Daily predictions for brighter satellites

Satellite Brightness Start Highest point End
(mag) Time Altitude Azimuth Time Altitude Azimuth Time Altitude Azimuth
FALCON 9 R/B 4.4 02:31:24 68° ESE 02:31:24 68° ESE 02:59:01 10° E
Cosmos 2322 Rocket 4.0 03:28:05 25° NNE 03:28:05 25° NNE 03:30:21 10° NNE
CENTAUR R/B 3.9 03:30:07 31° N 03:30:07 31° N 03:33:56 10° NNE
SL-16 R/B 3.9 03:31:52 27° NNE 03:31:52 27° NNE 03:34:20 10° NNE
ADEOS Rocket 4.5 03:26:57 10° NNE 03:29:19 26° NNE 03:29:19 26° NNE
CZ-2D R/B 4.1 03:51:33 10° N 03:53:19 20° N 03:53:19 20° N
Cosmos 2360 Rocket 2.8 03:57:54 52° ENE 03:57:54 52° ENE 04:02:22 10° NNE
Resurs 1-4 Rocket 4.2 03:56:23 10° N 03:57:40 17° NNW 03:57:40 17° NNW
Okean O Rocket 2.9 04:06:20 10° NNE 04:09:49 38° ENE 04:09:49 38° ENE
Cosmos 2263 Rocket 4.4 04:12:05 10° NNW 04:12:41 13° NNW 04:12:41 13° NNW
Cosmos 2184 Rocket 4.1 04:11:57 10° N 04:18:10 71° E 04:22:49 19° SSE
DELTA 2 R/B (1) 3.7 04:20:34 66° ESE 04:20:34 66° ESE 04:25:33 10° ENE
Meteor 1-18 Rocket 4.1 04:22:10 82° NNE 04:22:10 82° NNE 04:27:33 10° N
Cosmos 1777 Rocket 4.4 04:17:52 10° N 04:23:08 63° ENE 04:28:22 10° SSE
MOS 1-B 4.4 04:20:32 10° N 04:25:50 64° NW 04:25:50 64° NW
ADEOS II 2.6 04:23:49 10° NNE 04:29:00 58° E 04:30:52 37° SSE
Cosmos 2322 3.6 04:29:55 78° WNW 04:29:55 78° WNW 04:35:39 10° NNE
Lacrosse 5 3.2 04:34:52 28° SSE 04:34:52 28° SSE 04:37:16 10° SSE
Cosmos 1455 Rocket 3.4 04:28:18 10° N 04:32:08 60° NE 04:32:08 60° NE
MOS 1 Rocket 4.1 04:30:04 10° N 04:33:13 40° NNW 04:33:13 40° NNW
EO 1 Del DPAF 4.2 04:34:09 38° ESE 04:35:04 46° ENE 04:38:47 10° N
Cosmos 1238 Rocket 3.8 04:46:13 33° ENE 04:46:13 33° ENE 04:48:29 10° NNE
Cosmos 2333 4.4 04:46:11 30° S 04:49:01 68° ESE 04:54:40 10° NNE
Cosmos 2154 Rocket 4.2 04:45:38 10° N 04:51:48 69° E 04:57:58 10° SSE
Lacrosse 4 Rocket 2.1 04:47:48 10° NNW 04:51:55 53° ENE 04:56:07 10° SE
Cosmos 1975 3.6 04:47:55 10° N 04:50:38 40° NNW 04:50:38 40° NNW
Cosmos 1536 Rocket 3.4 04:54:41 68° W 04:54:43 68° W 04:59:11 10° N
Cosmos 2208 Rocket 4.0 04:53:05 37° SSW 04:55:22 90° NW 05:00:52 10° NNE
CZ-4B DEB 4.1 04:52:03 10° N 04:57:38 78° WNW 05:00:33 29° SSW
Tiangong 2 2.8 04:59:14 27° N 04:59:23 27° N 05:02:07 10° ENE
CZ-4B R/B 3.1 04:56:19 10° N 05:01:56 72° WNW 05:04:58 28° SSW
Meteor PRIRODA 4.2 04:59:19 10° NNE 05:03:03 59° E 05:05:25 21° S
GOES 2 Rocket 4.2 05:02:58 32° SSW 05:04:11 36° S 05:09:42 10° ESE
IRAS Rocket 4.1 04:59:33 10° N 05:05:05 73° WNW 05:08:32 24° SSW
Cosmos 2181 Rocket 4.3 05:02:37 10° S 05:08:43 67° E 05:14:56 10° NNE
Cosmos 2322 Rocket 4.2 05:09:55 12° NW 05:09:55 12° NW 05:11:40 10° NNW
IRS-P2 Rocket 4.5 05:04:44 10° N 05:09:55 68° WNW 05:13:12 23° SSW
Cosmos 1610 Rocket 4.5 05:06:14 10° NNW 05:12:22 60° W 05:18:34 10° S
Nadezhda 1 Rocket 4.2 05:10:49 30° SW 05:13:18 45° W 05:19:06 10° N
Cosmos 2237 4.4 05:11:23 34° WSW 05:13:28 50° WNW 05:19:02 10° N
SL-16 R/B 4.2 05:13:44 12° NW 05:13:44 12° NW 05:15:33 10° NNW
PSLV R/B 3.7 05:09:23 10° N 05:13:35 51° WNW 05:14:44 39° WSW
USA 215 3.2 05:07:38 10° SE 05:14:09 71° SW 05:20:44 10° NW
COSMOS 2428 2.7 05:14:19 28° SW 05:17:15 60° WNW 05:22:53 10° NNE
CZ-2C R/B 3.7 05:16:01 10° S 05:20:34 57° W 05:25:03 10° NNW
USA 229 DEB 3.8 05:15:49 13° SSW 05:22:05 81° ESE 05:29:02 10° NNE
USA 229 3.8 05:15:53 12° SSW 05:22:11 80° ESE 05:29:07 10° NE
ERS-2 2.0 05:18:30 10° NNE 05:22:13 86° WNW 05:25:12 15° SSW
Cosmos 2219 Rocket 2.2 05:18:32 10° SSW 05:24:04 87° ESE 05:29:41 10° NNE
ISS -3.6 05:24:19 46° WSW 05:24:34 47° SW 05:27:45 10° SSE
Meteor 1-19 Rocket 4.2 05:23:45 10° SSW 05:29:18 66° W 05:34:59 10° N
Cosmos 2341 Rocket 3.9 05:23:10 10° N 05:29:25 80° W 05:35:37 10° S
Cosmos 1844 Rocket 2.6 05:30:22 10° NNW 05:35:59 87° WSW 05:41:32 10° SSE
CZ-4B R/B 4.1 05:34:07 10° N 05:38:36 72° WNW 05:43:04 10° SSW
Cosmos 2360 Rocket 3.7 05:39:41 16° WNW 05:41:15 17° NW 05:44:54 10° NNW
Cosmos 1898 Rocket 3.9 05:37:40 10° NNW 05:42:51 68° ENE 05:47:59 10° SSE
Cosmos 468 Rocket 3.9 05:37:50 10° SSW 05:42:59 79° WNW 05:48:13 10° NNE
Cosmos 2278 Rocket 3.4 05:40:49 10° N 05:46:16 46° ENE 05:51:41 10° SE
Okean O Rocket 3.3 05:43:52 10° NNW 05:46:34 16° WNW 05:47:18 15° WNW
Meteor 2-4 Rocket 3.7 05:42:15 10° SSW 05:47:50 63° W 05:53:18 10° N
Cosmos 2237 Rocket 2.3 05:43:19 10° SSW 05:48:58 81° ESE 05:54:42 10° NNE
Cosmos 405 Rocket 2.8 05:46:48 10° S 05:50:52 87° WNW 05:54:56 10° N
COSMO-SKYMED 1 3.2 05:50:44 10° SSE 05:54:59 62° ENE 05:59:17 10° N
Feng Yun 1-1 Rocket 4.4 05:49:58 10° N 05:55:42 58° WNW 06:01:18 10° SSW
OAO 3 Copernicus 4.3 05:52:12 15° W 05:56:22 81° S 06:01:24 10° E
Okean-O 3.0 05:52:44 10° N 05:56:57 44° WNW 06:01:09 10° SW
Cosmos 2285 Rocket 4.1 05:54:22 10° SSW 06:00:42 60° WNW 06:07:05 10° N
Cosmos 1666 3.2 05:58:08 10° NNW 06:01:43 37° W 06:05:17 10° SSW
Cosmos 1743 4.0 06:01:05 10° NW 06:03:56 20° W 06:06:46 10° SW
Meteor 1-31 Rocket 3.6 06:00:48 10° NNW 06:04:06 28° WNW 06:07:24 10° SW
Cosmos 2333 Rocket 2.4 05:59:54 10° SW 06:05:27 53° WNW 06:11:04 10° NNE
Cosmos 1726 Rocket 3.8 06:01:00 10° N 06:05:28 78° E 06:09:56 10° S
DELTA 2 R/B (1) 3.9 06:01:20 11° W 06:06:36 62° N 06:12:06 10° ENE
Cosmos 858 Rocket 4.5 06:01:53 10° NNW 06:07:11 82° WSW 06:12:25 10° SSE
Cosmos 1025 Rocket 3.5 06:03:22 10° SSW 06:07:27 39° W 06:11:35 10° N
BREEZE M DEB (TANK) 3.6 05:59:54 10° NW 06:07:51 48° NNE 06:10:50 10° E
ADEOS II 3.7 06:05:05 10° NNW 06:08:11 16° WNW 06:11:18 10° W
ATLAS 5 CENTAUR R/B 3.1 06:02:23 10° NNW 06:08:25 63° NE 06:14:56 10° SE
Cosmos 1892 Rocket 3.5 06:05:34 10° S 06:09:53 78° W 06:14:16 10° N
NOSS 0 Rocket 4.1 06:06:20 10° SW 06:12:24 56° WNW 06:18:27 10° NNE
Cosmos 1763 Rocket 3.4 06:08:49 10° SSW 06:13:52 79° WNW 06:18:59 10° NNE
Cosmos 1937 Rocket 3.5 06:09:56 10° NNW 06:15:16 84° WSW 06:20:33 10° SSE
NOAA 6 4.3 06:13:03 10° N 06:17:59 49° WNW 06:22:53 10° SW
Cosmos 1346 3.4 06:15:14 10° S 06:18:02 63° E 06:20:51 10° NNE
Cosmos 1959 Rocket 4.5 06:12:26 10° NNW 06:18:27 64° W 06:24:29 10° S
